RZO182 LPLA-LPPR

Flight info

Callsign RZO182
Flight time N/A
Altitude 27000
Route REGLA H121 BAVAS/M072F350 DCT 40N020W DCT DETOX/N0458F350 DCT ASMOV
Aircraft A21N/M-SDE2E3FGHIRWXY/LB1

Departure

Time N/A
Airport Lajes Airport (LPLA)

Arrival

Time 2026-05-03 21:24
Airport Francisco de Sá Carneiro Airport (LPPR)
Time Latitude Longitude Altitude Speed Heading
2026-05-03 20:15 40.30397 -18.60421 35223 ft 464 kts 70°
2026-05-03 20:15 40.32120 -18.52272 35222 ft 464 kts 70°
2026-05-03 20:16 40.33832 -18.44116 35238 ft 464 kts 70°
2026-05-03 20:16 40.35529 -18.35957 35233 ft 464 kts 70°
2026-05-03 20:17 40.37236 -18.27730 35227 ft 464 kts 70°
2026-05-03 20:17 40.38933 -18.19560 35223 ft 464 kts 70°
2026-05-03 20:18 40.40622 -18.11388 35218 ft 464 kts 70°
2026-05-03 20:18 40.42293 -18.03202 35232 ft 465 kts 70°
2026-05-03 20:19 40.43979 -17.94949 35218 ft 465 kts 70°
2026-05-03 20:19 40.45662 -17.86743 35207 ft 465 kts 70°
2026-05-03 20:20 40.47333 -17.78529 35207 ft 466 kts 70°
2026-05-03 20:20 40.48999 -17.70310 35229 ft 466 kts 70°
2026-05-03 20:21 40.50648 -17.62090 35218 ft 466 kts 70°
2026-05-03 20:21 40.52298 -17.53838 35215 ft 466 kts 70°
2026-05-03 20:22 40.53964 -17.45536 35205 ft 466 kts 70°
2026-05-03 20:22 40.55610 -17.37291 35235 ft 467 kts 70°
2026-05-03 20:23 40.57259 -17.28968 35211 ft 467 kts 70°
2026-05-03 20:23 40.58884 -17.20691 35202 ft 467 kts 70°
2026-05-03 20:24 40.60511 -17.12411 35201 ft 468 kts 70°
2026-05-03 20:24 40.62141 -17.04122 35227 ft 468 kts 70°
2026-05-03 20:25 40.63775 -16.95761 35205 ft 469 kts 70°
2026-05-03 20:25 40.65391 -16.87444 35193 ft 469 kts 70°
2026-05-03 20:26 40.66756 -16.80404 35188 ft 470 kts 70°
2026-05-03 20:26 40.68357 -16.72075 35186 ft 470 kts 71°
2026-05-03 20:27 40.69953 -16.63705 35204 ft 471 kts 71°
2026-05-03 20:27 40.71564 -16.55284 35192 ft 471 kts 71°
2026-05-03 20:28 40.73157 -16.46904 35189 ft 472 kts 71°
2026-05-03 20:28 40.74759 -16.38453 35189 ft 472 kts 71°
2026-05-03 20:29 40.76344 -16.30058 35207 ft 472 kts 71°
2026-05-03 20:29 40.77931 -16.21633 35184 ft 473 kts 71°
2026-05-03 20:30 40.79514 -16.13193 35174 ft 474 kts 71°
2026-05-03 20:30 40.81085 -16.04738 35173 ft 475 kts 71°
2026-05-03 20:31 40.82661 -15.96207 35192 ft 475 kts 72°
2026-05-03 20:31 40.84229 -15.87724 35176 ft 476 kts 72°
2026-05-03 20:32 40.85795 -15.79223 35178 ft 477 kts 72°
2026-05-03 20:32 40.87346 -15.70706 35174 ft 477 kts 72°
2026-05-03 20:33 40.88903 -15.62128 35186 ft 477 kts 72°
2026-05-03 20:33 40.90452 -15.53590 35172 ft 478 kts 72°
2026-05-03 20:34 40.92008 -15.44989 35170 ft 478 kts 72°
2026-05-03 20:34 40.93548 -15.36427 35168 ft 479 kts 72°
2026-05-03 20:35 40.95090 -15.27798 35169 ft 479 kts 72°
2026-05-03 20:35 40.96626 -15.19162 35164 ft 479 kts 72°
2026-05-03 20:36 40.98148 -15.10582 35165 ft 479 kts 73°
2026-05-03 20:36 40.99640 -15.01985 35166 ft 480 kts 75°
2026-05-03 20:37 41.00142 -14.93119 35192 ft 485 kts 85°
2026-05-03 20:37 41.00293 -14.84181 35180 ft 486 kts 85°
2026-05-03 20:38 41.00448 -14.75243 35174 ft 486 kts 85°
2026-05-03 20:38 41.00596 -14.66302 35170 ft 486 kts 85°
2026-05-03 20:39 41.00739 -14.57360 35188 ft 486 kts 85°
2026-05-03 20:39 41.00875 -14.48416 35175 ft 486 kts 86°
2026-05-03 20:40 41.01003 -14.39471 35169 ft 486 kts 86°
2026-05-03 20:40 41.01118 -14.30461 35163 ft 486 kts 86°
2026-05-03 20:41 41.01228 -14.21512 35168 ft 486 kts 86°
2026-05-03 20:41 41.01344 -14.12560 35157 ft 487 kts 86°
2026-05-03 20:42 41.01445 -14.03533 35150 ft 487 kts 86°
2026-05-03 20:42 41.01536 -13.94559 35149 ft 487 kts 87°
2026-05-03 20:43 41.01616 -13.85580 35170 ft 488 kts 87°
2026-05-03 20:43 41.01700 -13.76596 35157 ft 488 kts 87°
2026-05-03 20:44 41.01773 -13.67607 35155 ft 488 kts 87°
2026-05-03 20:44 41.01825 -13.58616 35146 ft 488 kts 88°
2026-05-03 20:45 41.01878 -13.49625 35149 ft 488 kts 87°
2026-05-03 20:45 41.01937 -13.40626 35147 ft 489 kts 88°
2026-05-03 20:46 41.01983 -13.31620 35143 ft 489 kts 88°
2026-05-03 20:46 41.02021 -13.22607 35140 ft 490 kts 88°
2026-05-03 20:47 41.02051 -13.13466 35127 ft 490 kts 88°
2026-05-03 20:47 41.02071 -13.05964 35127 ft 491 kts 89°
2026-05-03 20:48 41.02089 -12.96922 35124 ft 492 kts 89°
2026-05-03 20:48 41.02095 -12.92348 34926 ft 501 kts 89°
2026-05-03 20:48 41.02100 -12.87712 34692 ft 506 kts 89°
2026-05-03 20:48 41.02105 -12.82977 34460 ft 508 kts 89°
2026-05-03 20:49 41.02103 -12.78299 34235 ft 509 kts 89°
2026-05-03 20:49 41.02096 -12.73612 33994 ft 509 kts 89°
2026-05-03 20:49 41.02091 -12.68927 33722 ft 509 kts 89°
2026-05-03 20:49 41.02083 -12.64236 33453 ft 509 kts 89°
2026-05-03 20:50 41.02076 -12.59547 33166 ft 509 kts 89°
2026-05-03 20:50 41.02067 -12.54861 32850 ft 509 kts 89°
2026-05-03 20:50 41.02058 -12.50178 32538 ft 509 kts 89°
2026-05-03 20:50 41.02046 -12.45496 32228 ft 509 kts 89°
2026-05-03 20:51 41.02033 -12.40815 31922 ft 508 kts 89°
2026-05-03 20:51 41.02016 -12.36133 31622 ft 508 kts 90°
2026-05-03 20:51 41.01998 -12.31450 31320 ft 508 kts 90°
2026-05-03 20:51 41.01980 -12.26703 31020 ft 508 kts 90°
2026-05-03 20:52 41.01958 -12.22028 30731 ft 508 kts 90°
2026-05-03 20:52 41.01931 -12.17344 30438 ft 508 kts 90°
2026-05-03 20:52 41.01901 -12.12668 30143 ft 508 kts 90°
2026-05-03 20:52 41.01871 -12.07990 29798 ft 508 kts 90°
2026-05-03 20:53 41.01842 -12.03312 29465 ft 508 kts 90°
2026-05-03 20:53 41.01811 -11.98635 29125 ft 508 kts 90°
2026-05-03 20:53 41.01777 -11.93953 28788 ft 508 kts 90°
2026-05-03 20:53 41.01737 -11.89274 28453 ft 508 kts 90°
2026-05-03 20:54 41.01698 -11.84591 28123 ft 508 kts 90°
2026-05-03 20:54 41.01625 -11.75232 27478 ft 508 kts 90°
2026-05-03 20:54 41.01586 -11.70487 27154 ft 508 kts 90°
2026-05-03 20:55 41.01543 -11.65808 26840 ft 508 kts 90°
2026-05-03 20:55 41.01498 -11.61124 26529 ft 509 kts 90°
2026-05-03 20:55 41.01448 -11.56446 26223 ft 509 kts 90°
2026-05-03 20:55 41.01395 -11.51762 25919 ft 509 kts 90°
2026-05-03 20:56 41.01339 -11.47089 25622 ft 507 kts 90°
2026-05-03 20:56 41.01281 -11.42436 25325 ft 504 kts 90°
2026-05-03 20:56 41.01226 -11.37804 25031 ft 502 kts 90°
2026-05-03 20:56 41.01167 -11.33202 24741 ft 499 kts 90°
2026-05-03 20:57 41.01106 -11.28622 24452 ft 497 kts 91°
2026-05-03 20:57 41.01044 -11.24053 24164 ft 495 kts 91°
2026-05-03 20:57 41.00978 -11.19445 23875 ft 493 kts 91°
2026-05-03 20:57 41.00914 -11.14919 23573 ft 491 kts 91°
2026-05-03 20:58 41.00850 -11.10412 23242 ft 488 kts 91°
2026-05-03 20:58 41.00785 -11.05933 22917 ft 486 kts 91°
2026-05-03 20:58 41.00718 -11.01470 22578 ft 484 kts 91°
2026-05-03 20:58 41.00651 -10.97027 22253 ft 482 kts 91°
2026-05-03 20:59 41.00582 -10.92601 21936 ft 480 kts 91°
2026-05-03 20:59 41.00511 -10.88192 21618 ft 479 kts 91°
2026-05-03 20:59 41.00436 -10.83795 21299 ft 477 kts 91°
2026-05-03 20:59 41.00360 -10.79416 20988 ft 475 kts 91°
2026-05-03 21:00 41.00282 -10.75055 20683 ft 473 kts 91°
2026-05-03 21:00 41.00231 -10.72171 20478 ft 472 kts 91°
2026-05-03 21:00 41.00128 -10.66375 20074 ft 470 kts 91°
2026-05-03 21:00 41.00048 -10.62064 19776 ft 468 kts 91°
2026-05-03 21:01 40.99966 -10.57767 19481 ft 466 kts 92°
2026-05-03 21:01 40.99883 -10.53487 19180 ft 464 kts 92°
2026-05-03 21:01 40.99799 -10.49222 18894 ft 463 kts 92°
2026-05-03 21:01 40.99714 -10.44977 18604 ft 461 kts 92°
2026-05-03 21:02 40.99628 -10.40740 18308 ft 459 kts 92°
2026-05-03 21:02 40.99541 -10.36528 17980 ft 457 kts 92°
2026-05-03 21:02 40.99451 -10.32324 17655 ft 455 kts 92°
2026-05-03 21:02 40.99360 -10.28156 17335 ft 453 kts 92°
2026-05-03 21:03 40.99268 -10.24003 17012 ft 450 kts 92°
2026-05-03 21:03 40.99175 -10.19871 16700 ft 448 kts 92°
2026-05-03 21:03 40.99082 -10.15756 16388 ft 446 kts 92°
2026-05-03 21:03 40.98987 -10.11665 16078 ft 444 kts 92°
2026-05-03 21:04 40.98891 -10.07592 15770 ft 442 kts 92°
2026-05-03 21:04 40.98796 -10.03532 15468 ft 440 kts 92°
2026-05-03 21:04 40.98700 -9.99494 15169 ft 438 kts 92°
2026-05-03 21:04 40.98602 -9.95475 14872 ft 436 kts 92°
2026-05-03 21:05 40.98505 -9.91471 14579 ft 434 kts 92°
2026-05-03 21:05 40.98406 -9.87486 14292 ft 432 kts 92°
2026-05-03 21:05 40.98305 -9.83521 14001 ft 431 kts 92°
2026-05-03 21:05 40.98200 -9.79517 13688 ft 429 kts 92°
2026-05-03 21:06 40.98096 -9.75585 13368 ft 425 kts 92°
2026-05-03 21:06 40.97991 -9.71732 13046 ft 412 kts 92°
2026-05-03 21:06 40.97889 -9.68012 12816 ft 398 kts 92°
2026-05-03 21:06 40.97791 -9.64414 12605 ft 385 kts 92°
2026-05-03 21:07 40.97699 -9.60978 12396 ft 373 kts 92°
2026-05-03 21:07 40.97608 -9.57606 12189 ft 361 kts 92°
2026-05-03 21:07 40.97515 -9.54337 12012 ft 350 kts 92°
2026-05-03 21:07 40.97422 -9.51125 11780 ft 341 kts 92°
2026-05-03 21:08 40.97333 -9.48020 11520 ft 334 kts 92°
2026-05-03 21:08 40.97245 -9.44967 11224 ft 329 kts 92°
2026-05-03 21:08 40.97157 -9.41987 10928 ft 325 kts 92°
2026-05-03 21:08 40.97068 -9.39026 10623 ft 312 kts 92°
2026-05-03 21:09 40.96983 -9.36200 10335 ft 306 kts 92°
2026-05-03 21:09 40.96906 -9.33383 10037 ft 304 kts 91°
2026-05-03 21:09 40.96872 -9.30583 9724 ft 303 kts 90°
2026-05-03 21:09 40.96866 -9.27844 9408 ft 302 kts 89°
2026-05-03 21:10 40.96867 -9.25078 9090 ft 300 kts 89°
2026-05-03 21:10 40.96864 -9.22292 8771 ft 298 kts 89°
2026-05-03 21:10 40.96855 -9.19580 8458 ft 297 kts 89°
2026-05-03 21:10 40.96839 -9.16864 8151 ft 286 kts 89°
2026-05-03 21:11 40.96821 -9.14275 7849 ft 282 kts 89°
2026-05-03 21:11 40.96802 -9.11671 7543 ft 277 kts 89°
2026-05-03 21:11 40.96780 -9.09173 7243 ft 268 kts 89°
2026-05-03 21:11 40.96761 -9.07013 6987 ft 265 kts 89°
2026-05-03 21:12 40.96742 -9.04636 6688 ft 253 kts 89°
2026-05-03 21:12 40.96726 -9.02348 6393 ft 245 kts 89°
2026-05-03 21:12 40.96711 -9.00128 6113 ft 236 kts 89°
2026-05-03 21:12 40.96692 -8.98008 6060 ft 228 kts 89°
2026-05-03 21:13 40.96673 -8.95931 6065 ft 224 kts 89°
2026-05-03 21:13 40.96653 -8.93883 6101 ft 223 kts 89°
2026-05-03 21:13 40.96633 -8.91834 6073 ft 222 kts 89°
2026-05-03 21:13 40.96615 -8.89789 6000 ft 221 kts 89°
2026-05-03 21:14 40.96596 -8.87760 5866 ft 218 kts 89°
2026-05-03 21:14 40.96577 -8.85808 5733 ft 208 kts 89°
2026-05-03 21:14 40.96557 -8.83916 5610 ft 205 kts 89°
2026-05-03 21:14 40.96537 -8.82013 5345 ft 203 kts 89°
2026-05-03 21:15 40.96520 -8.80152 5094 ft 202 kts 88°
2026-05-03 21:15 40.96503 -8.78302 4839 ft 201 kts 88°
2026-05-03 21:15 40.96485 -8.76457 4581 ft 200 kts 88°
2026-05-03 21:15 40.96477 -8.74624 4321 ft 198 kts 85°
2026-05-03 21:16 40.96656 -8.72831 4107 ft 195 kts 75°
2026-05-03 21:16 40.96928 -8.71072 4053 ft 195 kts 76°
2026-05-03 21:16 40.97192 -8.69318 4053 ft 195 kts 76°
2026-05-03 21:16 40.97455 -8.67564 4051 ft 194 kts 76°
2026-05-03 21:17 40.97631 -8.66387 4045 ft 191 kts 76°
2026-05-03 21:17 40.97909 -8.64677 4043 ft 188 kts 69°
2026-05-03 21:17 40.98552 -8.63208 4043 ft 184 kts 44°
2026-05-03 21:17 40.99576 -8.62237 4034 ft 181 kts 20°
2026-05-03 21:18 41.00803 -8.61895 3906 ft 177 kts 357°
2026-05-03 21:18 41.02012 -8.62146 3778 ft 176 kts 347°
2026-05-03 21:18 41.03176 -8.62461 3643 ft 166 kts 347°
2026-05-03 21:18 41.04282 -8.62755 3533 ft 161 kts 347°
2026-05-03 21:19 41.05390 -8.63049 3415 ft 160 kts 347°
2026-05-03 21:19 41.06474 -8.63337 3280 ft 155 kts 347°
2026-05-03 21:19 41.07513 -8.63609 3161 ft 150 kts 347°
2026-05-03 21:19 41.08545 -8.63879 3083 ft 148 kts 347°
2026-05-03 21:20 41.09555 -8.64142 3031 ft 147 kts 347°
2026-05-03 21:20 41.10565 -8.64409 2944 ft 148 kts 347°
2026-05-03 21:20 41.11571 -8.64681 2679 ft 147 kts 347°
2026-05-03 21:20 41.12572 -8.64959 2334 ft 147 kts 347°
2026-05-03 21:21 41.13564 -8.65230 2144 ft 146 kts 347°
2026-05-03 21:21 41.14563 -8.65481 1988 ft 147 kts 348°
2026-05-03 21:21 41.15572 -8.65702 1750 ft 147 kts 350°
2026-05-03 21:21 41.16582 -8.65921 1558 ft 147 kts 348°
2026-05-03 21:22 41.17581 -8.66206 1454 ft 148 kts 346°
2026-05-03 21:22 41.18580 -8.66511 1259 ft 147 kts 347°
2026-05-03 21:22 41.19578 -8.66765 1050 ft 145 kts 350°
2026-05-03 21:22 41.20575 -8.67000 879 ft 145 kts 347°
2026-05-03 21:23 41.21569 -8.67273 669 ft 145 kts 348°
2026-05-03 21:23 41.22542 -8.67533 472 ft 142 kts 348°
2026-05-03 21:23 41.23500 -8.67780 280 ft 138 kts 348°
2026-05-03 21:23 41.24382 -8.68017 237 ft 104 kts 348°
2026-05-03 21:24 41.24802 -8.68126 237 ft 30 kts 349°
2026-05-03 21:24 41.25008 -8.68168 234 ft 30 kts 355°
2026-05-03 21:24 41.25186 -8.68140 235 ft 17 kts 15°
2026-05-03 21:24 41.25261 -8.68105 234 ft 9 kts 24°
2026-05-03 21:25 41.25289 -8.68046 235 ft 7 kts 97°
2026-05-03 21:25 41.25259 -8.68013 237 ft 5 kts 163°
2026-05-03 21:25 41.25226 -8.68003 235 ft 7 kts 167°
2026-05-03 21:25 41.25132 -8.67975 235 ft 15 kts 169°
2026-05-03 21:26 41.25034 -8.67950 235 ft 13 kts 169°
2026-05-03 21:26 41.24944 -8.67927 235 ft 16 kts 169°
2026-05-03 21:26 41.24824 -8.67863 240 ft 19 kts 149°
2026-05-03 21:26 41.24696 -8.67805 239 ft 18 kts 170°
2026-05-03 21:27 41.24568 -8.67776 239 ft 25 kts 169°
2026-05-03 21:27 41.24398 -8.67730 236 ft 25 kts 168°
2026-05-03 21:27 41.24244 -8.67606 236 ft 20 kts 132°
2026-05-03 21:27 41.24128 -8.67553 235 ft 21 kts 169°
2026-05-03 21:28 41.23980 -8.67515 235 ft 22 kts 169°
2026-05-03 21:28 41.23825 -8.67476 235 ft 23 kts 169°
2026-05-03 21:28 41.23658 -8.67431 235 ft 25 kts 168°
2026-05-03 21:28 41.23572 -8.67405 235 ft 13 kts 163°
2026-05-03 21:29 41.23519 -8.67318 235 ft 11 kts 115°
2026-05-03 21:29 41.23506 -8.67281 235 ft 1 kts 114°
2026-05-03 21:29 41.23506 -8.67279 235 ft 0 kts 114°